Year,Month,Day,Hour,Minute,Value (Times are PST for insolation in W/m^2)
2016,10,11,00,00,0.00
2016,10,11,00,01,0.00
2016,10,11,00,02,0.00
2016,10,11,00,03,0.00
2016,10,11,00,04,0.00
2016,10,11,00,05,0.00
2016,10,11,00,06,0.00
2016,10,11,00,07,0.00
2016,10,11,00,08,0.00
2016,10,11,00,09,0.00
2016,10,11,00,10,0.00
2016,10,11,00,11,0.00
2016,10,11,00,12,0.00
2016,10,11,00,13,0.00
2016,10,11,00,14,0.00
2016,10,11,00,15,0.00
2016,10,11,00,16,0.00
2016,10,11,00,17,0.00
2016,10,11,00,18,0.00
2016,10,11,00,19,0.00
2016,10,11,00,20,0.00
2016,10,11,00,21,0.00
2016,10,11,00,22,0.00
2016,10,11,00,23,0.00
2016,10,11,00,24,0.00
2016,10,11,00,25,0.00
2016,10,11,00,26,0.00
2016,10,11,00,27,0.00
2016,10,11,00,28,0.00
2016,10,11,00,29,0.00
2016,10,11,00,30,0.00
2016,10,11,00,31,0.00
2016,10,11,00,32,0.00
2016,10,11,00,33,0.00
2016,10,11,00,34,0.00
2016,10,11,00,35,0.00
2016,10,11,00,36,0.00
2016,10,11,00,37,0.00
2016,10,11,00,38,0.00
2016,10,11,00,39,0.00
2016,10,11,00,40,0.00
2016,10,11,00,41,0.00
2016,10,11,00,42,0.00
2016,10,11,00,43,0.00
2016,10,11,00,44,0.00
2016,10,11,00,45,0.00
2016,10,11,00,46,0.00
2016,10,11,00,47,0.00
2016,10,11,00,48,0.00
2016,10,11,00,49,0.00
2016,10,11,00,50,0.00
2016,10,11,00,51,0.00
2016,10,11,00,52,0.00
2016,10,11,00,53,0.00
2016,10,11,00,54,0.00
2016,10,11,00,55,0.00
2016,10,11,00,56,0.00
2016,10,11,00,57,0.00
2016,10,11,00,58,0.00
2016,10,11,00,59,0.00
2016,10,11,01,00,0.00
2016,10,11,01,01,0.00
2016,10,11,01,02,0.00
2016,10,11,01,03,0.00
2016,10,11,01,04,0.00
2016,10,11,01,05,0.00
2016,10,11,01,06,0.00
2016,10,11,01,07,0.00
2016,10,11,01,08,0.00
2016,10,11,01,09,0.00
2016,10,11,01,10,0.00
2016,10,11,01,11,0.00
2016,10,11,01,12,0.00
2016,10,11,01,13,0.00
2016,10,11,01,14,0.00
2016,10,11,01,15,0.00
2016,10,11,01,16,0.00
2016,10,11,01,17,0.00
2016,10,11,01,18,0.00
2016,10,11,01,19,0.00
2016,10,11,01,20,0.00
2016,10,11,01,21,0.00
2016,10,11,01,22,0.00
2016,10,11,01,23,0.00
2016,10,11,01,24,0.00
2016,10,11,01,25,0.00
2016,10,11,01,26,0.00
2016,10,11,01,27,0.00
2016,10,11,01,28,0.00
2016,10,11,01,29,0.00
2016,10,11,01,30,0.00
2016,10,11,01,31,0.00
2016,10,11,01,32,0.00
2016,10,11,01,33,0.00
2016,10,11,01,34,0.00
2016,10,11,01,35,0.00
2016,10,11,01,36,0.00
2016,10,11,01,37,0.00
2016,10,11,01,38,0.00
2016,10,11,01,39,0.00
2016,10,11,01,40,0.00
2016,10,11,01,41,0.00
2016,10,11,01,42,0.00
2016,10,11,01,43,0.00
2016,10,11,01,44,0.00
2016,10,11,01,45,0.00
2016,10,11,01,46,0.00
2016,10,11,01,47,0.00
2016,10,11,01,48,0.00
2016,10,11,01,49,0.00
2016,10,11,01,50,0.00
2016,10,11,01,51,0.00
2016,10,11,01,52,0.00
2016,10,11,01,53,0.00
2016,10,11,01,54,0.00
2016,10,11,01,55,0.00
2016,10,11,01,56,0.00
2016,10,11,01,57,0.00
2016,10,11,01,58,0.00
2016,10,11,01,59,0.00
2016,10,11,02,00,0.00
2016,10,11,02,01,0.00
2016,10,11,02,02,0.00
2016,10,11,02,03,0.00
2016,10,11,02,04,0.00
2016,10,11,02,05,0.00
2016,10,11,02,06,0.00
2016,10,11,02,07,0.00
2016,10,11,02,08,0.00
2016,10,11,02,09,0.00
2016,10,11,02,10,0.00
2016,10,11,02,11,0.00
2016,10,11,02,12,0.00
2016,10,11,02,13,0.00
2016,10,11,02,14,0.00
2016,10,11,02,15,0.00
2016,10,11,02,16,0.00
2016,10,11,02,17,0.00
2016,10,11,02,18,0.00
2016,10,11,02,19,0.00
2016,10,11,02,20,0.00
2016,10,11,02,21,0.00
2016,10,11,02,22,0.00
2016,10,11,02,23,0.00
2016,10,11,02,24,0.00
2016,10,11,02,25,0.00
2016,10,11,02,26,0.00
2016,10,11,02,27,0.00
2016,10,11,02,28,0.00
2016,10,11,02,29,0.00
2016,10,11,02,30,0.00
2016,10,11,02,31,0.00
2016,10,11,02,32,0.00
2016,10,11,02,33,0.00
2016,10,11,02,34,0.00
2016,10,11,02,35,0.00
2016,10,11,02,36,0.00
2016,10,11,02,37,0.00
2016,10,11,02,38,0.00
2016,10,11,02,39,0.00
2016,10,11,02,40,0.00
2016,10,11,02,41,0.00
2016,10,11,02,42,0.00
2016,10,11,02,43,0.00
2016,10,11,02,44,0.00
2016,10,11,02,45,0.00
2016,10,11,02,46,0.00
2016,10,11,02,47,0.00
2016,10,11,02,48,0.00
2016,10,11,02,49,0.00
2016,10,11,02,50,0.00
2016,10,11,02,51,0.00
2016,10,11,02,52,0.00
2016,10,11,02,53,0.00
2016,10,11,02,54,0.00
2016,10,11,02,55,0.00
2016,10,11,02,56,0.00
2016,10,11,02,57,0.00
2016,10,11,02,58,0.00
2016,10,11,02,59,0.00
2016,10,11,03,00,0.00
2016,10,11,03,01,0.00
2016,10,11,03,02,0.00
2016,10,11,03,03,0.00
2016,10,11,03,04,0.00
2016,10,11,03,05,0.00
2016,10,11,03,06,0.00
2016,10,11,03,07,0.00
2016,10,11,03,08,0.00
2016,10,11,03,09,0.00
2016,10,11,03,10,0.00
2016,10,11,03,11,0.00
2016,10,11,03,12,0.00
2016,10,11,03,13,0.00
2016,10,11,03,14,0.00
2016,10,11,03,15,0.00
2016,10,11,03,16,0.00
2016,10,11,03,17,0.00
2016,10,11,03,18,0.00
2016,10,11,03,19,0.00
2016,10,11,03,20,0.00
2016,10,11,03,21,0.00
2016,10,11,03,22,0.00
2016,10,11,03,23,0.00
2016,10,11,03,24,0.00
2016,10,11,03,25,0.00
2016,10,11,03,26,0.00
2016,10,11,03,27,0.00
2016,10,11,03,28,0.00
2016,10,11,03,29,0.00
2016,10,11,03,30,0.00
2016,10,11,03,31,0.00
2016,10,11,03,32,0.00
2016,10,11,03,33,0.00
2016,10,11,03,34,0.00
2016,10,11,03,35,0.00
2016,10,11,03,36,0.00
2016,10,11,03,37,0.00
2016,10,11,03,38,0.00
2016,10,11,03,39,0.00
2016,10,11,03,40,0.00
2016,10,11,03,41,0.00
2016,10,11,03,42,0.00
2016,10,11,03,43,0.00
2016,10,11,03,44,0.00
2016,10,11,03,45,0.00
2016,10,11,03,46,0.00
2016,10,11,03,47,0.00
2016,10,11,03,48,0.00
2016,10,11,03,49,0.00
2016,10,11,03,50,0.00
2016,10,11,03,51,0.00
2016,10,11,03,52,0.00
2016,10,11,03,53,0.00
2016,10,11,03,54,0.00
2016,10,11,03,55,0.00
2016,10,11,03,56,0.00
2016,10,11,03,57,0.00
2016,10,11,03,58,0.00
2016,10,11,03,59,0.00
2016,10,11,04,00,0.00
2016,10,11,04,01,0.00
2016,10,11,04,02,0.00
2016,10,11,04,03,0.00
2016,10,11,04,04,0.00
2016,10,11,04,05,0.00
2016,10,11,04,06,0.00
2016,10,11,04,07,0.00
2016,10,11,04,08,0.00
2016,10,11,04,09,0.00
2016,10,11,04,10,0.00
2016,10,11,04,11,0.00
2016,10,11,04,12,0.00
2016,10,11,04,13,0.00
2016,10,11,04,14,0.00
2016,10,11,04,15,0.00
2016,10,11,04,16,0.00
2016,10,11,04,17,0.00
2016,10,11,04,18,0.00
2016,10,11,04,19,0.00
2016,10,11,04,20,0.00
2016,10,11,04,21,0.00
2016,10,11,04,22,0.00
2016,10,11,04,23,0.00
2016,10,11,04,24,0.00
2016,10,11,04,25,0.00
2016,10,11,04,26,0.00
2016,10,11,04,27,0.00
2016,10,11,04,28,0.00
2016,10,11,04,29,0.00
2016,10,11,04,30,0.00
2016,10,11,04,31,0.00
2016,10,11,04,32,0.00
2016,10,11,04,33,0.00
2016,10,11,04,34,0.00
2016,10,11,04,35,0.00
2016,10,11,04,36,0.00
2016,10,11,04,37,0.00
2016,10,11,04,38,0.00
2016,10,11,04,39,0.00
2016,10,11,04,40,0.00
2016,10,11,04,41,0.00
2016,10,11,04,42,0.00
2016,10,11,04,43,0.00
2016,10,11,04,44,0.00
2016,10,11,04,45,0.00
2016,10,11,04,46,0.00
2016,10,11,04,47,0.00
2016,10,11,04,48,0.00
2016,10,11,04,49,0.00
2016,10,11,04,50,0.00
2016,10,11,04,51,0.00
2016,10,11,04,52,0.00
2016,10,11,04,53,0.00
2016,10,11,04,54,0.00
2016,10,11,04,55,0.00
2016,10,11,04,56,0.00
2016,10,11,04,57,0.00
2016,10,11,04,58,0.00
2016,10,11,04,59,0.00
2016,10,11,05,00,0.00
2016,10,11,05,01,0.00
2016,10,11,05,02,0.00
2016,10,11,05,03,0.00
2016,10,11,05,04,0.00
2016,10,11,05,05,0.00
2016,10,11,05,06,0.00
2016,10,11,05,07,0.00
2016,10,11,05,08,0.00
2016,10,11,05,09,0.00
2016,10,11,05,10,0.00
2016,10,11,05,11,0.00
2016,10,11,05,12,0.00
2016,10,11,05,13,0.00
2016,10,11,05,14,0.00
2016,10,11,05,15,0.00
2016,10,11,05,16,0.00
2016,10,11,05,17,0.00
2016,10,11,05,18,0.00
2016,10,11,05,19,0.00
2016,10,11,05,20,0.00
2016,10,11,05,21,0.00
2016,10,11,05,22,0.00
2016,10,11,05,23,0.00
2016,10,11,05,24,0.00
2016,10,11,05,25,0.00
2016,10,11,05,26,0.00
2016,10,11,05,27,0.00
2016,10,11,05,28,0.00
2016,10,11,05,29,0.00
2016,10,11,05,30,0.00
2016,10,11,05,31,0.00
2016,10,11,05,32,0.00
2016,10,11,05,33,0.00
2016,10,11,05,34,0.00
2016,10,11,05,35,0.00
2016,10,11,05,36,0.00
2016,10,11,05,37,0.00
2016,10,11,05,38,0.00
2016,10,11,05,39,0.00
2016,10,11,05,40,0.00
2016,10,11,05,41,0.00
2016,10,11,05,42,0.00
2016,10,11,05,43,0.00
2016,10,11,05,44,0.00
2016,10,11,05,45,0.00
2016,10,11,05,46,0.00
2016,10,11,05,47,0.00
2016,10,11,05,48,0.00
2016,10,11,05,49,0.00
2016,10,11,05,50,0.00
2016,10,11,05,51,0.00
2016,10,11,05,52,0.00
2016,10,11,05,53,0.00
2016,10,11,05,54,0.00
2016,10,11,05,55,0.00
2016,10,11,05,56,0.00
2016,10,11,05,57,0.00
2016,10,11,05,58,0.00
2016,10,11,05,59,0.00
2016,10,11,06,00,0.00
2016,10,11,06,01,0.00
2016,10,11,06,02,0.00
2016,10,11,06,03,0.00
2016,10,11,06,04,0.00
2016,10,11,06,05,0.00
2016,10,11,06,06,0.00
2016,10,11,06,07,0.00
2016,10,11,06,08,0.00
2016,10,11,06,09,0.00
2016,10,11,06,10,0.00
2016,10,11,06,11,0.00
2016,10,11,06,12,0.00
2016,10,11,06,13,0.00
2016,10,11,06,14,0.00
2016,10,11,06,15,0.00
2016,10,11,06,16,0.00
2016,10,11,06,17,0.00
2016,10,11,06,18,0.00
2016,10,11,06,19,0.00
2016,10,11,06,20,0.00
2016,10,11,06,21,0.00
2016,10,11,06,22,0.00
2016,10,11,06,23,0.00
2016,10,11,06,24,0.00
2016,10,11,06,25,0.00
2016,10,11,06,26,0.00
2016,10,11,06,27,0.00
2016,10,11,06,28,0.00
2016,10,11,06,29,0.00
2016,10,11,06,30,0.00
2016,10,11,06,31,0.00
2016,10,11,06,32,0.00
2016,10,11,06,33,0.00
2016,10,11,06,34,0.00
2016,10,11,06,35,0.00
2016,10,11,06,36,0.00
2016,10,11,06,37,0.00
2016,10,11,06,38,0.00
2016,10,11,06,39,0.00
2016,10,11,06,40,0.00
2016,10,11,06,41,0.00
2016,10,11,06,42,0.00
2016,10,11,06,43,0.00
2016,10,11,06,44,0.00
2016,10,11,06,45,0.00
2016,10,11,06,46,0.00
2016,10,11,06,47,0.00
2016,10,11,06,48,0.00
2016,10,11,06,49,0.00
2016,10,11,06,50,0.00
2016,10,11,06,51,0.00
2016,10,11,06,52,0.00
2016,10,11,06,53,0.00
2016,10,11,06,54,0.00
2016,10,11,06,55,0.00
2016,10,11,06,56,0.00
2016,10,11,06,57,0.00
2016,10,11,06,58,0.00
2016,10,11,06,59,0.00
2016,10,11,07,00,0.00
2016,10,11,07,01,0.00
2016,10,11,07,02,0.00
2016,10,11,07,03,0.00
2016,10,11,07,04,0.00
2016,10,11,07,05,0.00
2016,10,11,07,06,0.00
2016,10,11,07,07,0.00
2016,10,11,07,08,0.00
2016,10,11,07,09,0.00
2016,10,11,07,10,0.00
2016,10,11,07,11,0.00
2016,10,11,07,12,0.00
2016,10,11,07,13,0.00
2016,10,11,07,14,0.00
2016,10,11,07,15,0.00
2016,10,11,07,16,0.00
2016,10,11,07,17,0.00
2016,10,11,07,18,0.00
2016,10,11,07,19,0.00
2016,10,11,07,20,0.00
2016,10,11,07,21,0.00
2016,10,11,07,22,0.00
2016,10,11,07,23,0.00
2016,10,11,07,24,0.00
2016,10,11,07,25,0.00
2016,10,11,07,26,2.30
2016,10,11,07,27,5.00
2016,10,11,07,28,5.00
2016,10,11,07,29,5.00
2016,10,11,07,30,5.00
2016,10,11,07,31,6.80
2016,10,11,07,32,7.00
2016,10,11,07,33,7.00
2016,10,11,07,34,7.50
2016,10,11,07,35,9.00
2016,10,11,07,36,9.00
2016,10,11,07,37,9.00
2016,10,11,07,38,10.10
2016,10,11,07,39,11.00
2016,10,11,07,40,11.00
2016,10,11,07,41,11.00
2016,10,11,07,42,11.90
2016,10,11,07,43,12.00
2016,10,11,07,44,12.00
2016,10,11,07,45,12.00
2016,10,11,07,46,12.60
2016,10,11,07,47,14.00
2016,10,11,07,48,14.00
2016,10,11,07,49,14.00
2016,10,11,07,50,15.30
2016,10,11,07,51,16.00
2016,10,11,07,52,16.00
2016,10,11,07,53,16.00
2016,10,11,07,54,16.10
2016,10,11,07,55,18.00
2016,10,11,07,56,18.00
2016,10,11,07,57,18.00
2016,10,11,07,58,18.00
2016,10,11,07,59,18.50
2016,10,11,08,00,19.00
2016,10,11,08,01,19.00
2016,10,11,08,02,19.00
2016,10,11,08,03,19.00
2016,10,11,08,04,20.70
2016,10,11,08,05,21.00
2016,10,11,08,06,21.00
2016,10,11,08,07,22.60
2016,10,11,08,08,33.40
2016,10,11,08,09,52.50
2016,10,11,08,10,63.40
2016,10,11,08,11,66.10
2016,10,11,08,12,68.90
2016,10,11,08,13,71.50
2016,10,11,08,14,75.20
2016,10,11,08,15,76.90
2016,10,11,08,16,80.90
2016,10,11,08,17,83.40
2016,10,11,08,18,86.50
2016,10,11,08,19,88.90
2016,10,11,08,20,92.50
2016,10,11,08,21,95.90
2016,10,11,08,22,98.60
2016,10,11,08,23,101.30
2016,10,11,08,24,104.20
2016,10,11,08,25,106.60
2016,10,11,08,26,110.50
2016,10,11,08,27,114.00
2016,10,11,08,28,118.30
2016,10,11,08,29,120.70
2016,10,11,08,30,124.10
2016,10,11,08,31,128.10
2016,10,11,08,32,130.90
2016,10,11,08,33,133.60
2016,10,11,08,34,137.70
2016,10,11,08,35,140.50
2016,10,11,08,36,143.40
2016,10,11,08,37,147.50
2016,10,11,08,38,151.00
2016,10,11,08,39,153.40
2016,10,11,08,40,156.90
2016,10,11,08,41,161.00
2016,10,11,08,42,163.80
2016,10,11,08,43,166.80
2016,10,11,08,44,170.60
2016,10,11,08,45,174.50
2016,10,11,08,46,178.10
2016,10,11,08,47,180.60
2016,10,11,08,48,184.60
2016,10,11,08,49,188.00
2016,10,11,08,50,192.10
2016,10,11,08,51,193.90
2016,10,11,08,52,197.90
2016,10,11,08,53,201.50
2016,10,11,08,54,204.90
2016,10,11,08,55,207.60
2016,10,11,08,56,211.50
2016,10,11,08,57,213.70
2016,10,11,08,58,217.20
2016,10,11,08,59,220.60
2016,10,11,09,00,223.10
2016,10,11,09,01,227.40
2016,10,11,09,02,230.50
2016,10,11,09,03,233.10
2016,10,11,09,04,237.10
2016,10,11,09,05,239.90
2016,10,11,09,06,242.10
2016,10,11,09,07,244.90
2016,10,11,09,08,247.40
2016,10,11,09,09,248.00
2016,10,11,09,10,252.50
2016,10,11,09,11,255.00
2016,10,11,09,12,258.30
2016,10,11,09,13,260.50
2016,10,11,09,14,263.00
2016,10,11,09,15,265.80
2016,10,11,09,16,268.80
2016,10,11,09,17,271.50
2016,10,11,09,18,273.30
2016,10,11,09,19,276.90
2016,10,11,09,20,278.80
2016,10,11,09,21,280.70
2016,10,11,09,22,284.90
2016,10,11,09,23,287.00
2016,10,11,09,24,288.10
2016,10,11,09,25,292.60
2016,10,11,09,26,294.40
2016,10,11,09,27,296.80
2016,10,11,09,28,300.10
2016,10,11,09,29,301.60
2016,10,11,09,30,303.50
2016,10,11,09,31,307.20
2016,10,11,09,32,308.90
2016,10,11,09,33,311.00
2016,10,11,09,34,313.40
2016,10,11,09,35,316.50
2016,10,11,09,36,318.60
2016,10,11,09,37,321.10
2016,10,11,09,38,323.90
2016,10,11,09,39,326.10
2016,10,11,09,40,328.30
2016,10,11,09,41,331.20
2016,10,11,09,42,333.60
2016,10,11,09,43,335.80
2016,10,11,09,44,338.00
2016,10,11,09,45,339.50
2016,10,11,09,46,343.50
2016,10,11,09,47,345.30
2016,10,11,09,48,346.80
2016,10,11,09,49,348.90
2016,10,11,09,50,351.10
2016,10,11,09,51,352.60
2016,10,11,09,52,356.00
2016,10,11,09,53,358.60
2016,10,11,09,54,359.90
2016,10,11,09,55,362.00
2016,10,11,09,56,364.40
2016,10,11,09,57,367.00
2016,10,11,09,58,368.30
2016,10,11,09,59,371.80
2016,10,11,10,00,373.50
2016,10,11,10,01,375.10
2016,10,11,10,02,377.30
2016,10,11,10,03,379.50
2016,10,11,10,04,380.80
2016,10,11,10,05,382.80
2016,10,11,10,06,386.90
2016,10,11,10,07,388.30
2016,10,11,10,08,390.50
2016,10,11,10,09,392.60
2016,10,11,10,10,394.80
2016,10,11,10,11,396.50
2016,10,11,10,12,398.10
2016,10,11,10,13,400.30
2016,10,11,10,14,402.50
2016,10,11,10,15,403.80
2016,10,11,10,16,405.80
2016,10,11,10,17,408.00
2016,10,11,10,18,410.00
2016,10,11,10,19,411.10
2016,10,11,10,20,415.60
2016,10,11,10,21,417.40
2016,10,11,10,22,418.90
2016,10,11,10,23,421.10
2016,10,11,10,24,423.30
2016,10,11,10,25,424.70
2016,10,11,10,26,426.60
2016,10,11,10,27,428.70
2016,10,11,10,28,431.00
2016,10,11,10,29,432.30
2016,10,11,10,30,434.50
2016,10,11,10,31,436.00
2016,10,11,10,32,437.10
2016,10,11,10,33,439.90
2016,10,11,10,34,442.10
2016,10,11,10,35,444.30
2016,10,11,10,36,445.00
2016,10,11,10,37,445.80
2016,10,11,10,38,449.60
2016,10,11,10,39,450.10
2016,10,11,10,40,452.30
2016,10,11,10,41,454.20
2016,10,11,10,42,455.60
2016,10,11,10,43,457.80
2016,10,11,10,44,459.90
2016,10,11,10,45,461.50
2016,10,11,10,46,462.00
2016,10,11,10,47,464.90
2016,10,11,10,48,466.00
2016,10,11,10,49,467.70
2016,10,11,10,50,469.00
2016,10,11,10,51,471.30
2016,10,11,10,52,473.00
2016,10,11,10,53,474.00
2016,10,11,10,54,476.00
2016,10,11,10,55,476.90
2016,10,11,10,56,479.10
2016,10,11,10,57,480.00
2016,10,11,10,58,481.50
2016,10,11,10,59,482.80
2016,10,11,11,00,484.70
2016,10,11,11,01,486.90
2016,10,11,11,02,487.30
2016,10,11,11,03,489.20
2016,10,11,11,04,490.00
2016,10,11,11,05,490.80
2016,10,11,11,06,493.00
2016,10,11,11,07,494.00
2016,10,11,11,08,495.30
2016,10,11,11,09,496.70
2016,10,11,11,10,498.60
2016,10,11,11,11,500.70
2016,10,11,11,12,502.90
2016,10,11,11,13,503.10
2016,10,11,11,14,504.50
2016,10,11,11,15,506.00
2016,10,11,11,16,506.80
2016,10,11,11,17,508.00
2016,10,11,11,18,509.10
2016,10,11,11,19,511.30
2016,10,11,11,20,512.70
2016,10,11,11,21,513.00
2016,10,11,11,22,513.00
2016,10,11,11,23,515.00
2016,10,11,11,24,517.00
2016,10,11,11,25,517.50
2016,10,11,11,26,519.00
2016,10,11,11,27,519.40
2016,10,11,11,28,520.00
2016,10,11,11,29,521.10
2016,10,11,11,30,523.30
2016,10,11,11,31,524.00
2016,10,11,11,32,525.60
2016,10,11,11,33,526.90
2016,10,11,11,34,527.10
2016,10,11,11,35,529.30
2016,10,11,11,36,531.00
2016,10,11,11,37,531.00
2016,10,11,11,38,531.80
2016,10,11,11,39,533.00
2016,10,11,11,40,533.50
2016,10,11,11,41,534.00
2016,10,11,11,42,535.50
2016,10,11,11,43,537.60
2016,10,11,11,44,538.00
2016,10,11,11,45,539.90
2016,10,11,11,46,540.00
2016,10,11,11,47,540.20
2016,10,11,11,48,541.00
2016,10,11,11,49,541.80
2016,10,11,11,50,543.00
2016,10,11,11,51,544.10
2016,10,11,11,52,546.30
2016,10,11,11,53,547.00
2016,10,11,11,54,547.80
2016,10,11,11,55,547.10
2016,10,11,11,56,549.90
2016,10,11,11,57,550.00
2016,10,11,11,58,550.00
2016,10,11,11,59,550.60
2016,10,11,12,00,552.00
2016,10,11,12,01,553.00
2016,10,11,12,02,554.00
2016,10,11,12,03,554.60
2016,10,11,12,04,555.00
2016,10,11,12,05,555.00
2016,10,11,12,06,555.00
2016,10,11,12,07,556.90
2016,10,11,12,08,557.30
2016,10,11,12,09,559.00
2016,10,11,12,10,559.00
2016,10,11,12,11,559.80
2016,10,11,12,12,561.00
2016,10,11,12,13,561.00
2016,10,11,12,14,561.00
2016,10,11,12,15,561.00
2016,10,11,12,16,562.60
2016,10,11,12,17,563.90
2016,10,11,12,18,564.00
2016,10,11,12,19,564.00
2016,10,11,12,20,564.00
2016,10,11,12,21,564.60
2016,10,11,12,22,566.00
2016,10,11,12,23,566.00
2016,10,11,12,24,566.00
2016,10,11,12,25,564.70
2016,10,11,12,26,565.50
2016,10,11,12,27,566.00
2016,10,11,12,28,567.80
2016,10,11,12,29,568.00
2016,10,11,12,30,568.00
2016,10,11,12,31,568.00
2016,10,11,12,32,568.00
2016,10,11,12,33,568.80
2016,10,11,12,34,569.10
2016,10,11,12,35,568.00
2016,10,11,12,36,569.30
2016,10,11,12,37,570.00
2016,10,11,12,38,570.00
2016,10,11,12,39,570.00
2016,10,11,12,40,571.00
2016,10,11,12,41,570.90
2016,10,11,12,42,570.00
2016,10,11,12,43,570.30
2016,10,11,12,44,571.00
2016,10,11,12,45,570.50
2016,10,11,12,46,570.50
2016,10,11,12,47,571.00
2016,10,11,12,48,571.00
2016,10,11,12,49,571.00
2016,10,11,12,50,571.00
2016,10,11,12,51,570.10
2016,10,11,12,52,571.30
2016,10,11,12,53,572.50
2016,10,11,12,54,571.00
2016,10,11,12,55,571.00
2016,10,11,12,56,571.00
2016,10,11,12,57,571.00
2016,10,11,12,58,571.00
2016,10,11,12,59,571.00
2016,10,11,13,00,571.00
2016,10,11,13,01,570.10
2016,10,11,13,02,571.00
2016,10,11,13,03,571.00
2016,10,11,13,04,571.00
2016,10,11,13,05,570.70
2016,10,11,13,06,570.00
2016,10,11,13,07,570.00
2016,10,11,13,08,568.90
2016,10,11,13,09,568.00
2016,10,11,13,10,568.00
2016,10,11,13,11,568.00
2016,10,11,13,12,568.00
2016,10,11,13,13,568.00
2016,10,11,13,14,567.70
2016,10,11,13,15,566.00
2016,10,11,13,16,566.00
2016,10,11,13,17,566.00
2016,10,11,13,18,566.00
2016,10,11,13,19,566.00
2016,10,11,13,20,566.00
2016,10,11,13,21,566.00
2016,10,11,13,22,564.40
2016,10,11,13,23,564.00
2016,10,11,13,24,564.00
2016,10,11,13,25,563.90
2016,10,11,13,26,563.00
2016,10,11,13,27,563.00
2016,10,11,13,28,562.20
2016,10,11,13,29,561.00
2016,10,11,13,30,561.00
2016,10,11,13,31,561.00
2016,10,11,13,32,559.50
2016,10,11,13,33,559.00
2016,10,11,13,34,559.00
2016,10,11,13,35,558.90
2016,10,11,13,36,556.70
2016,10,11,13,37,555.50
2016,10,11,13,38,556.40
2016,10,11,13,39,555.00
2016,10,11,13,40,555.00
2016,10,11,13,41,554.50
2016,10,11,13,42,554.00
2016,10,11,13,43,552.50
2016,10,11,13,44,550.40
2016,10,11,13,45,551.80
2016,10,11,13,46,550.10
2016,10,11,13,47,549.70
2016,10,11,13,48,548.00
2016,10,11,13,49,547.70
2016,10,11,13,50,547.00
2016,10,11,13,51,547.00
2016,10,11,13,52,547.00
2016,10,11,13,53,544.50
2016,10,11,13,54,544.50
2016,10,11,13,55,543.40
2016,10,11,13,56,541.20
2016,10,11,13,57,541.00
2016,10,11,13,58,540.90
2016,10,11,13,59,539.50
2016,10,11,14,00,538.00
2016,10,11,14,01,538.00
2016,10,11,14,02,537.10
2016,10,11,14,03,534.90
2016,10,11,14,04,534.00
2016,10,11,14,05,533.30
2016,10,11,14,06,533.00
2016,10,11,14,07,531.30
2016,10,11,14,08,530.90
2016,10,11,14,09,529.00
2016,10,11,14,10,528.50
2016,10,11,14,11,527.00
2016,10,11,14,12,526.60
2016,10,11,14,13,526.00
2016,10,11,14,14,524.90
2016,10,11,14,15,524.00
2016,10,11,14,16,521.10
2016,10,11,14,17,520.00
2016,10,11,14,18,519.10
2016,10,11,14,19,517.00
2016,10,11,14,20,517.00
2016,10,11,14,21,516.50
2016,10,11,14,22,514.40
2016,10,11,14,23,512.60
2016,10,11,14,24,512.50
2016,10,11,14,25,511.40
2016,10,11,14,26,508.70
2016,10,11,14,27,508.00
2016,10,11,14,28,508.00
2016,10,11,14,29,504.40
2016,10,11,14,30,504.00
2016,10,11,14,31,502.70
2016,10,11,14,32,500.50
2016,10,11,14,33,499.00
2016,10,11,14,34,498.20
2016,10,11,14,35,496.50
2016,10,11,14,36,494.90
2016,10,11,14,37,494.00
2016,10,11,14,38,492.50
2016,10,11,14,39,490.40
2016,10,11,14,40,490.00
2016,10,11,14,41,488.90
2016,10,11,14,42,486.70
2016,10,11,14,43,484.50
2016,10,11,14,44,483.00
2016,10,11,14,45,482.60
2016,10,11,14,46,481.10
2016,10,11,14,47,480.00
2016,10,11,14,48,478.70
2016,10,11,14,49,478.00
2016,10,11,14,50,475.50
2016,10,11,14,51,473.20
2016,10,11,14,52,472.90
2016,10,11,14,53,470.70
2016,10,11,14,54,468.80
2016,10,11,14,55,467.40
2016,10,11,14,56,466.00
2016,10,11,14,57,464.20
2016,10,11,14,58,462.00
2016,10,11,14,59,461.40
2016,10,11,15,00,459.50
2016,10,11,15,01,457.40
2016,10,11,15,02,455.20
2016,10,11,15,03,454.00
2016,10,11,15,04,452.00
2016,10,11,15,05,451.50
2016,10,11,15,06,449.40
2016,10,11,15,07,447.20
2016,10,11,15,08,445.50
2016,10,11,15,09,443.90
2016,10,11,15,10,440.50
2016,10,11,15,11,439.00
2016,10,11,15,12,438.20
2016,10,11,15,13,436.20
2016,10,11,15,14,434.00
2016,10,11,15,15,431.90
2016,10,11,15,16,431.00
2016,10,11,15,17,429.70
2016,10,11,15,18,426.20
2016,10,11,15,19,424.50
2016,10,11,15,20,422.90
2016,10,11,15,21,420.70
2016,10,11,15,22,418.50
2016,10,11,15,23,417.20
2016,10,11,15,24,415.20
2016,10,11,15,25,413.00
2016,10,11,15,26,410.90
2016,10,11,15,27,409.50
2016,10,11,15,28,407.40
2016,10,11,15,29,405.20
2016,10,11,15,30,403.50
2016,10,11,15,31,401.90
2016,10,11,15,32,399.70
2016,10,11,15,33,397.50
2016,10,11,15,34,396.20
2016,10,11,15,35,394.20
2016,10,11,15,36,393.80
2016,10,11,15,37,390.00
2016,10,11,15,38,388.90
2016,10,11,15,39,384.40
2016,10,11,15,40,382.20
2016,10,11,15,41,380.50
2016,10,11,15,42,378.90
2016,10,11,15,43,376.70
2016,10,11,15,44,373.80
2016,10,11,15,45,371.40
2016,10,11,15,46,371.00
2016,10,11,15,47,370.80
2016,10,11,15,48,365.70
2016,10,11,15,49,363.50
2016,10,11,15,50,361.40
2016,10,11,15,51,359.60
2016,10,11,15,52,358.00
2016,10,11,15,53,354.80
2016,10,11,15,54,352.40
2016,10,11,15,55,350.50
2016,10,11,15,56,348.40
2016,10,11,15,57,346.20
2016,10,11,15,58,345.00
2016,10,11,15,59,342.50
2016,10,11,16,00,338.80
2016,10,11,16,01,338.00
2016,10,11,16,02,336.50
2016,10,11,16,03,333.10
2016,10,11,16,04,330.30
2016,10,11,16,05,327.70
2016,10,11,16,06,325.50
2016,10,11,16,07,323.40
2016,10,11,16,08,322.10
2016,10,11,16,09,318.10
2016,10,11,16,10,315.90
2016,10,11,16,11,314.50
2016,10,11,16,12,311.70
2016,10,11,16,13,308.60
2016,10,11,16,14,307.00
2016,10,11,16,15,303.80
2016,10,11,16,16,301.40
2016,10,11,16,17,299.50
2016,10,11,16,18,297.40
2016,10,11,16,19,297.00
2016,10,11,16,20,291.90
2016,10,11,16,21,289.60
2016,10,11,16,22,286.50
2016,10,11,16,23,284.40
2016,10,11,16,24,281.50
2016,10,11,16,25,278.50
2016,10,11,16,26,275.70
2016,10,11,16,27,272.70
2016,10,11,16,28,272.00
2016,10,11,16,29,267.90
2016,10,11,16,30,264.30
2016,10,11,16,31,259.90
2016,10,11,16,32,257.60
2016,10,11,16,33,254.10
2016,10,11,16,34,250.70
2016,10,11,16,35,248.40
2016,10,11,16,36,244.60
2016,10,11,16,37,243.00
2016,10,11,16,38,239.20
2016,10,11,16,39,234.80
2016,10,11,16,40,232.40
2016,10,11,16,41,229.30
2016,10,11,16,42,225.10
2016,10,11,16,43,222.60
2016,10,11,16,44,219.10
2016,10,11,16,45,215.00
2016,10,11,16,46,211.50
2016,10,11,16,47,208.00
2016,10,11,16,48,205.30
2016,10,11,16,49,204.00
2016,10,11,16,50,200.40
2016,10,11,16,51,195.70
2016,10,11,16,52,193.20
2016,10,11,16,53,190.00
2016,10,11,16,54,185.60
2016,10,11,16,55,182.50
2016,10,11,16,56,180.00
2016,10,11,16,57,176.50
2016,10,11,16,58,173.00
2016,10,11,16,59,170.30
2016,10,11,17,00,166.50
2016,10,11,17,01,162.80
2016,10,11,17,02,160.40
2016,10,11,17,03,156.40
2016,10,11,17,04,153.00
2016,10,11,17,05,150.60
2016,10,11,17,06,147.10
2016,10,11,17,07,143.40
2016,10,11,17,08,140.80
2016,10,11,17,09,137.10
2016,10,11,17,10,134.50
2016,10,11,17,11,131.50
2016,10,11,17,12,128.50
2016,10,11,17,13,125.50
2016,10,11,17,14,121.40
2016,10,11,17,15,119.90
2016,10,11,17,16,115.60